Regional Weather Roundup
Issued by NWS Charleston, SC

Current Version | Previous Version | Graphics & Text | Print | Product List | Glossary On
Versions: 1 2 3 4 5 6 7 8 9 10 11 12 13 14 15 16 17 18 19 20 21 22 23 24 25 26 27 28 29 30 31 32 33 34 35 36 37 38 39 40 41 42 43 44 45 46 47 48 49 50
000
ASUS42 KCHS 221410
RWRCHS

REGIONAL WEATHER ROUNDUP
NATIONAL WEATHER SERVICE CHARLESTON SC
1000 AM EDT MON SEP 22 2014

NOTE: "FAIR" INDICATES FEW OR NO CLOUDS BELOW 12,000 FEET WITH NO
SIGNIFICANT WEATHER AND/OR OBSTRUCTIONS TO VISIBILITY.

NOT ALL STATIONS ARE QUALITY CONTROLLED BY THE NATIONAL
WEATHER SERVICE. USE DATA WITH CAUTION...ESPECIALLY
DEWPOINT OBSERVATIONS.

SCZ027-030-031-034>040-042>050-221500-
...SOUTH CAROLINA...

CITY           SKY/WX    TMP DP  RH WIND       PRES   REMARKS
N CHARLESTON   PTSUNNY   78  64  61 NW9       30.02R
WATERFRONT PRK NOT AVBL
FORT JOHNSON   NOT AVBL
MOUNT PLEASANT FAIR      81  66  61 NW7       30.02S
JOHNS ISLAND   SUNNY     79  70  73 W9        30.03R
PINOPOLIS        N/A     77  66  69 W6        29.95R
MONCKS CORNER    N/A     75  68  78 CALM      30.02S
SUMMERVILLE    PTSUNNY   73  66  78 CALM      30.04R
BEAUFORT MCAS  MOSUNNY   78  63  59 W7        30.03S
BEAUFORT ARPT  FAIR      79  64  61 W7        30.03R
HILTON HEAD IS SUNNY     79  63  57 W10       30.05R
GEORGETOWN     NOT AVBL
WALTERBORO     SUNNY     77  61  57 W5        30.04R
ORANGEBURG     PTSUNNY   75  65  70 N10       30.04R
BARNWELL       FAIR      79  66  65 W6        30.03S
AIKEN          LGT RAIN  66  66 100 NE7       30.10R
MANNING        PTSUNNY   73  66  78 N9        30.04R
KINGSTREE      NOT AVBL
COLUMBIA       PTSUNNY   74  55  51 NE8       30.05R
SUMTER         MOSUNNY   71  63  76 N8        30.03R
FLORENCE       CLOUDY    69  63  81 N5        30.04R
MYRTLE BEACH   MOSUNNY   79  64  61 NW13      30.01R
N MYRTLE BEACH SUNNY     78  66  66 N9        30.01R

$$

GAZ063-065-086>088-099>101-113>116-118-119-134-136>141-150-221500-
...GEORGIA...

CITY           SKY/WX    TMP DP  RH WIND       PRES   REMARKS
SAVANNAH ARPT  MOSUNNY   77  62  59 W7        30.04S
HUNTER AAF     SUNNY     78  64  61 W9        30.02S
FORT STEWART   SUNNY     78  63  58 SW7       30.03S
STATESBORO     NOT AVBL
SYLVANIA       MOSUNNY   81  71  71 NW5       30.04R
CLAXTON        FAIR      77  68  73 CALM      30.03S
THOMSON        CLOUDY    71  71 100 CALM      30.09R
AUGUSTA-BUSH   CLOUDY    75  64  68 N8        30.03R
AUGUSTA-DANIEL LGT RAIN  70  67  90 N9        30.05R FOG
SWAINSBORO     FAIR      77  70  78 NW3       30.04R
VIDALIA        SUNNY     79  64  61 NW7       30.04R
ALMA           SUNNY     75  64  68 S5        30.04S
WAYCROSS       NOT AVBL
JESUP          FAIR      79  70  73 CALM      30.05R
BRUNSWICK      SUNNY     79  68  69 W9        30.06R
SAINT SIMONS   SUNNY     79  69  71 SW12      30.06R

$$

SCZ027-028-034-036>038-045-046-048>050-GAZ119-141-221500-
...LAKE AND SUPPLEMENTAL COASTAL OBSERVATIONS...

STATION/POSITION TIME  TEMP    WIND        PRES    WAVE   SWELL
                       AIR SEA DIR/SP/G            HT/PER HT/PER/DIR
                 (UTC) (F)     (DEG/KT/KT) (MB)    (FT/S) (FT/S/D)
UPR LAKE MARION  NOT AVBL
WINYAH BAY       1300   74     280/  7     1015.0S
LAKE MURRAY      1300   73      30/  2/  5 1016.6R
ACE BASIN NERRS  1300   73     280/  1     1016.0S
FORT PULASKI     1400   76     260/  9/ 10 1017.5R
SAPELO ISLAND    1300   74     230/  6     1017.0S

$$

ANZ835-935-AMZ111-154-330-350-352-354-374-450-454-472-221500-
...C-MAN AND BUOY OBSERVATIONS...

STATION/POSITION TIME  TEMP    WIND        PRES    WAVE   SWELL
                       AIR SEA DIR/SP/G            HT/PER HT/PER/DIR
                 (UTC) (F)     (DEG/KT/KT) (MB)    (FT/S) (FT/S/D)
FOLLY BEACH CMAN 1300   76     270/  7/ 11 1016.7R
BUOY 41004       1400   81 81  260/ 14/ 16 1016.1R   4/ 5   2/ 8
BUOY 41008       1400   79 83  250/ 14/ 16 1017.3R   2/ 4   2/100/ 9
5E ST. MARYS GA  1400      83                N/A     2/ 9
FRYING PAN BUOY  NOT AVBL
BUOY 41025       1400   77     300/ 10/ 12 1014.6R   6/ 6   5/200/ 6
CAPE LOOKOUT NC  1300   76     310/  7/  9 1014.8R
BUOY 41002       1301   80 81  280/  6/  8 1018.0R   4/ 7   3/ 70/ 7
BUOY 41010       1400   82 84  350/  2/  4 1018.1R   4/ 9   5/ 40/ 9
BUOY 41012       NOT AVBL
ST AUGUSTINE FL  1400   78     200/  5/  6 1018.6R
CAPERS NEARSHORE 1300   78     270/ 10/ 14   N/A
FRIPP NEARSHORE  NOT AVBL


$$


USA.gov is the U.S. government's official web portal to all federal, state and local government web resources and services.